Flag for U.S.A. Weather past 2 weeks in Breckenridge, Colorado, U.S.A.

Now
14 °F

Sunny.


Feels Like: -7 °F
Forecast: 19 / 28 °F
Wind: 30 mph from West

Location: Copper Mountain - Red Cliff Pass

Current Time: Feb 1, 2015 at 1:05:15 PM

Latest Report: Feb 1, 2015 at 12:35 PM


Visibility: 4 mi

Pressure: 30.02 "Hg

Humidity: 44%

Dew point: -4 °F

Location of BreckenridgeLocation

Historic Weather in Breckenridge — Graph

°F

Breckenridge temperature yesterday

Maximum temperature yesterday: 28 °F (at 2:15 AM)
Minimum temperature yesterday: 14 °F (at 10:55 PM)
Average temperature yesterday: 25 °F

Past Weeks' High & Low Weather Summary

 TemperatureHumidityPressure
High45 °F (Jan 26, 1:35 PM)86% (Jan 19, 8:35 PM)30.62 "Hg (Jan 19, 8:35 PM)
Low1 °F (Jan 21, 9:55 PM)3% (Jan 18, 1:15 AM)29.86 "Hg (Jan 31, 1:35 PM)
Average24 °F59%30.25 "Hg
* Reported Jan 17 11:15 AM — Feb 1 11:55 AM, Breckenridge, Weather by CustomWeather, © 2014

Note: Actual official high and low records may vary slightly from our data, if they occured in-between our weather recording intervals... More about our weather records

Advertising

Breckenridge weather history for previous 24 hours

 ConditionsComfort  
Time TempWeatherWind HumidityBarometerVisibility
11:55 AM
Feb 1
14 °FSunny.25 mph44%30.02 "Hg2 mi
11:35 AM14 °FSunny.28 mph41%30.02 "Hg3 mi
11:15 AM14 °FSunny.N/A41%30.02 "Hg10 mi
10:55 AM14 °FSunny.33 mph41%30.01 "Hg2 mi
10:35 AM14 °FSunny.29 mph44%30.02 "Hg7 mi
10:15 AM14 °FSunny.26 mph48%30.01 "Hg10 mi
9:55 AM12 °FSunny.30 mph57%29.99 "Hg3 mi
9:35 AM10 °FSunny.31 mph67%29.99 "Hg7 mi
9:15 AM10 °FSunny.26 mph67%29.99 "Hg10 mi
8:55 AM9 °FScattered clouds.26 mph72%29.97 "Hg10 mi
8:35 AM9 °FMostly cloudy.26 mph72%29.97 "Hg10 mi
8:15 AM9 °FOvercast.25 mph72%29.97 "Hg10 mi
7:55 AM9 °FOvercast.25 mph72%29.96 "Hg10 mi
7:35 AM9 °FOvercast.24 mph72%29.96 "Hg10 mi
6:25 AM7 °FClear.23 mph72%29.94 "Hg10 mi
5:55 AM9 °FClear.25 mph66%29.94 "Hg10 mi
5:35 AM9 °FPassing clouds.30 mph72%29.92 "Hg10 mi
5:15 AM9 °FPassing clouds.25 mph72%29.93 "Hg10 mi
4:55 AM9 °FMostly cloudy.23 mph72%29.94 "Hg10 mi
4:35 AM9 °FMostly cloudy.24 mph72%29.93 "Hg10 mi
4:15 AM9 °FPassing clouds.20 mph72%29.94 "Hg10 mi
2:35 AM12 °FMostly cloudy.26 mph73%29.91 "Hg10 mi
2:15 AM12 °FOvercast.25 mph73%29.90 "Hg5 mi
1:55 AM12 °FMostly cloudy.29 mph73%29.90 "Hg4 mi
1:35 AM12 °FLight snow. Overcast.38 mph73%29.88 "Hg1 mi
12:55 AM14 °FLight snow. Overcast.40 mph79%29.88 "Hg3 mi
12:35 AM14 °FLight snow. Mostly cloudy.35 mph79%29.88 "Hg2 mi
12:15 AM14 °FOvercast.29 mph79%29.89 "Hg5 mi
11:55 PM
Jan 31
14 °FOvercast.25 mph79%29.90 "Hg2 mi
11:35 PM14 °FPassing clouds.33 mph79%29.88 "Hg2 mi
11:15 PM14 °FLight snow. Mostly cloudy.41 mph79%29.88 "Hg1 mi
10:55 PM14 °FLight snow. Mostly cloudy.33 mph79%29.89 "Hg1 mi
10:35 PM18 °FLight snow. Mostly cloudy.43 mph73%29.87 "Hg1 mi
10:15 PM18 °FPartly cloudy.29 mph79%29.90 "Hg3 mi
9:55 PM19 °FPassing clouds.24 mph73%29.89 "Hg5 mi
9:35 PM19 °FPartly cloudy.29 mph79%29.89 "Hg2 mi
9:15 PM19 °FLight snow. Overcast.26 mph79%29.89 "Hg1 mi
8:55 PM19 °FLight snow. Mostly cloudy.37 mph79%29.88 "Hg1 mi
8:15 PM19 °FLight snow. Low clouds.22 mph79%29.91 "Hg1 mi
7:55 PM19 °FLight snow. Mostly cloudy.N/A79%29.90 "Hg1 mi
7:35 PM19 °FLight snow. Mostly cloudy.20 mph79%29.91 "Hg2 mi
7:15 PM23 °FLight snow. Low clouds.N/A80%29.90 "Hg0 mi
6:55 PM23 °FLight snow. Low clouds.N/A80%29.91 "Hg0 mi
6:35 PM23 °FLight snow. Low clouds.29 mph80%29.90 "Hg0 mi
6:15 PM23 °FLight snow. Low clouds.25 mph80%29.90 "Hg0 mi
5:55 PM23 °FLow clouds.24 mph80%29.89 "Hg1 mi
5:35 PM23 °FLow clouds.25 mph80%29.89 "Hg1 mi
5:15 PM23 °FLow clouds.22 mph80%29.89 "Hg1 mi
4:55 PM25 °FLight snow. Low clouds.N/A80%29.89 "Hg0 mi
4:35 PM25 °FSnow. Low clouds.20 mph80%29.88 "Hg0 mi
4:15 PM25 °FHeavy snow. Low clouds.N/A80%29.87 "Hg0 mi
3:55 PM27 °FLight snow. Low clouds.18 mph80%29.87 "Hg0 mi
3:35 PM27 °FLight snow. Low clouds.18 mph80%29.87 "Hg2 mi
3:15 PM28 °FLight snow. Low clouds.8 mph74%29.87 "Hg0 mi
2:55 PM28 °FLight snow. Low clouds.15 mph80%29.86 "Hg0 mi
2:35 PM28 °FSnow. Low clouds.18 mph74%29.86 "Hg0 mi
2:15 PM27 °FSnow. Low clouds.18 mph80%29.86 "Hg0 mi
1:35 PM27 °FLight snow. Low clouds.18 mph80%29.86 "Hg0 mi
1:15 PM28 °FSnow. Low clouds.18 mph80%29.87 "Hg0 mi
Weather by CustomWeather, © 2014

See weather overviewHow to use our weather pages